Home   Weather   Detroit   Past weeks

Flag for USA Past Weather in Detroit, Michigan, USA — Yesterday and Last 2 Weeks

Now
42 °F

Fog.


Feels Like: 38 °F
Forecast: 41 / 46 °F
Wind: 7 mph from Northeast

Location: Detroit City Airport

Current Time: Jan 23, 2017 at 1:47:27 am

Latest Report: Jan 23, 2017 at 12:53 am


Visibility: 0 mi

Pressure: 29.64 "Hg

Humidity: 100%

Dew Point: 42 °F

Location of DetroitLocation

Past Weather in Detroit — Graph

°F

Detroit Temperature Yesterday

Maximum temperature yesterday: 48 °F (at 1:39 pm)
Minimum temperature yesterday: 38 °F (at 1:53 am)
Average temperature yesterday: 43 °F

High & Low Weather Summary for the Past Weeks

 TemperatureHumidityPressure
High57 °F (Jan 12, 1:40 am)100% (Jan 10, 2:00 am)30.81 "Hg (Jan 10, 2:00 am)
Low8 °F (Jan 8, 6:53 am)49% (Jan 8, 2:53 pm)29.43 "Hg (Jan 10, 8:53 pm)
Average33 °F87%30.06 "Hg
* Reported Jan 7 11:53 pm — Jan 22 11:53 pm, Detroit, Weather by CustomWeather, © 2017

Note: Actual official high and low records may vary slightly from our data, if they occured in-between our weather recording intervals... More about our weather records

Advertising

Detroit Weather History for the Previous 24 Hours

Scroll right to see more
 ConditionsComfort  
Time TempWeatherWind HumidityBarometerVisibility
11:53 pm
Sun, Jan 22
43 °FFog.5 mph100%29.65 "Hg0 mi
11:21 pm43 °FFog.7 mph100%29.65 "Hg0 mi
11:01 pm44 °FFog.7 mph100%29.65 "Hg0 mi
10:00 pm45 °FFog.7 mph100%29.65 "Hg0 mi
9:19 pm45 °FFog.5 mph100%29.64 "Hg0 mi
8:53 pm45 °FFog.6 mph100%29.64 "Hg0 mi
7:53 pm46 °FFog.6 mph100%29.64 "Hg0 mi
6:53 pm46 °FFog.3 mph100%29.64 "Hg0 mi
6:17 pm46 °FFog.No wind100%29.62 "Hg0 mi
5:53 pm46 °FFog.3 mph100%29.63 "Hg0 mi
4:53 pm45 °FFog.3 mph100%29.63 "Hg0 mi
3:53 pm45 °FFog.7 mph100%29.63 "Hg0 mi
2:53 pm46 °FFog.7 mph100%29.62 "Hg0 mi
1:53 pm48 °FFog.5 mph100%29.62 "Hg0 mi
1:39 pm48 °FFog.5 mph100%29.61 "Hg0 mi
1:05 pm47 °FFog.6 mph100%29.62 "Hg1 mi
11:53 am45 °FFog.No wind100%29.64 "Hg0 mi
10:53 am43 °FFog.3 mph100%29.66 "Hg0 mi
10:31 am43 °FFog.3 mph100%29.65 "Hg0 mi
9:53 am42 °FFog.No wind100%29.65 "Hg1 mi
9:23 am41 °FFog.No wind100%29.64 "Hg1 mi
8:53 am41 °FFog.No wind100%29.64 "Hg0 mi
8:16 am40 °FFog.No wind100%29.63 "Hg0 mi
7:53 am41 °FFog.No wind100%29.63 "Hg0 mi
6:53 am41 °FFog.3 mph100%29.61 "Hg0 mi
5:53 am40 °FFog.3 mph100%29.61 "Hg0 mi
4:53 am40 °FFog.No wind100%29.61 "Hg0 mi
3:53 am40 °FFog.No wind100%29.62 "Hg0 mi
2:53 am39 °FFog.No wind100%29.63 "Hg0 mi
2:28 am39 °FFog.3 mph100%29.62 "Hg0 mi
1:53 am38 °FFog.5 mph100%29.62 "Hg1 mi
1:20 am40 °FFog.No wind100%29.62 "Hg3 mi
1:05 am40 °FFog.3 mph100%29.62 "Hg1 mi
Weather by CustomWeather, © 2017

See weather overviewHow to use our weather pages